Location: Newark
(22.3060°N, 114.2134°E)
Time: 18:41:13
(UTC+00:00)

Explorer 11/Cluster Stage 4 - Pass Details

Date: 02 August 2021
Orbit: 467 x 1256 km, 28.8° (Epoch: 26 September)

Event Time Altitude Azimuth Distance (km) Brightness Sun altitude
Rises 02:50:06 0° 278° (W) 4,136 10.0 66.2°
Reaches altitude 10° 02:53:04 10° 283° (WNW) 3,208 9.6 66.9°
Maximum altitude 03:01:06 54° 359° (N) 1,480 8.8 68.8°
Drops below altitude 10° 03:08:46 10° 75° (ENE) 3,068 10.0 70.5°
Sets 03:11:33 0° 80° (E) 3,946 10.4 71.1°
